Home > Weather > Khartoum > Past weeks

Flag for Sudan Weather for the Past 2 Weeks in Khartoum, Sudan

Now
97 °F

Sandstorm.


Feels Like: 96 °F
Forecast: 79 / 106 °F
Wind: 14 mph from South

Location: Khartoum Airport

Current Time: May 5, 2016 at 12:12:37 PM

Latest Report: May 5, 2016 at 11:30 AM


Visibility: 5 mi

Pressure: 29.83 "Hg

Humidity: 27%

Dew Point: 57 °F

Location of KhartoumLocation

Historic Weather in Khartoum — Graph

°F

Khartoum Temperature Yesterday

Maximum temperature yesterday: 108 °F (at 2:00 PM)
Minimum temperature yesterday: 84 °F (at 6:30 AM)
Average temperature yesterday: 98 °F

High & Low Weather Summary for the Past Weeks

 TemperatureHumidityPressure
High109 °F (Apr 27, 1:30 PM)38% (May 3, 5:30 AM)29.92 "Hg (May 3, 5:30 AM)
Low37 °F (Apr 22, 1:30 PM)3% (Apr 21, 12:00 PM)29.62 "Hg (Apr 24, 6:30 PM)
Average96 °F12%29.75 "Hg
* Reported Apr 20 11:00 AM — May 5 11:00 AM, Khartoum, Weather by CustomWeather, © 2016

Note: Actual official high and low records may vary slightly from our data, if they occured in-between our weather recording intervals... More about our weather records

Advertising

Khartoum Weather History for the Previous 24 Hours

Scroll right to see more
 ConditionsComfort  
Time TempWeatherWind HumidityBarometerVisibility
11:00 AM
Thu, May 5
97 °FSandstorm.14 mph27%29.83 "Hg5 mi
10:30 AM95 °FSandstorm.14 mph30%29.83 "Hg5 mi
10:00 AM93 °FSandstorm.12 mph23%29.83 "Hg5 mi
9:30 AM93 °FSandstorm.13 mph30%29.83 "Hg5 mi
9:00 AM91 °FSunny.8 mph32%29.83 "Hg10 mi
8:30 AM88 °FSunny.9 mph31%29.83 "Hg10 mi
8:00 AM88 °FSunny.8 mph31%29.80 "Hg10 mi
7:00 AM90 °FSunny.6 mph36%29.80 "Hg10 mi
6:00 AM90 °FClear.7 mph36%29.74 "Hg10 mi
5:30 AM90 °FClear.9 mph31%29.74 "Hg10 mi
5:00 AM90 °FHaze.9 mph31%29.74 "Hg5 mi
4:30 AM90 °FHaze.9 mph31%29.74 "Hg4 mi
4:00 AM90 °FHaze.9 mph31%29.74 "Hg3 mi
3:30 AM91 °FHaze.12 mph32%29.74 "Hg2 mi
3:00 AM91 °FDuststorm.8 mph32%29.74 "Hg2 mi
2:30 AM91 °FSandstorm.10 mph32%29.74 "Hg2 mi
2:00 AM91 °FDuststorm.16 mph32%29.74 "Hg2 mi
1:30 AM93 °FDuststorm.18 mph28%29.74 "Hg1 mi
1:00 AM93 °FDuststorm.17 mph28%29.74 "Hg1 mi
12:30 AM95 °FDuststorm.18 mph30%29.77 "Hg1 mi
12:00 AM95 °FDuststorm.17 mph30%29.77 "Hg1 mi
11:36 PM
Wed, May 4
97 °FDuststorm.16 mph12%29.74 "Hg1 mi
11:00 PM97 °FExtremely hot.5 mph12%29.74 "Hg5 mi
10:30 PM100 °FExtremely hot.2 mph15%29.74 "Hg4 mi
10:00 PM100 °FExtremely hot.No wind15%29.71 "Hg4 mi
9:30 PM100 °FExtremely hot.3 mph15%29.71 "Hg4 mi
9:00 PM100 °FExtremely hot.3 mph15%29.71 "Hg4 mi
8:30 PM104 °FSmoke.N/A11%29.68 "HgN/A
8:00 PM104 °FSmoke.N/A11%29.68 "HgN/A
7:30 PM106 °FClear.No wind9%29.68 "Hg10 mi
7:00 PM106 °FSunny.1 mph9%29.68 "Hg10 mi
6:30 PM108 °FSunny.2 mph10%29.68 "Hg10 mi
6:00 PM108 °FPassing clouds.6 mph10%29.65 "HgN/A
5:30 PM108 °FPassing clouds.6 mph8%29.65 "HgN/A
5:00 PM108 °FPassing clouds.6 mph8%29.65 "HgN/A
4:30 PM108 °FPassing clouds.6 mph10%29.68 "HgN/A
4:00 PM108 °FPassing clouds.8 mph10%29.68 "HgN/A
3:30 PM108 °FPassing clouds.6 mph10%29.68 "HgN/A
3:00 PM108 °FPassing clouds.6 mph10%29.71 "HgN/A
2:30 PM108 °FPassing clouds.6 mph10%29.71 "HgN/A
2:00 PM108 °FPassing clouds.6 mph10%29.74 "Hg5 mi
1:30 PM106 °FPassing clouds.7 mph13%29.77 "HgN/A
1:00 PM106 °FExtremely hot.7 mph13%29.80 "Hg5 mi
12:30 PM106 °FExtremely hot.12 mph13%29.77 "Hg5 mi
Weather by CustomWeather, © 2016

See weather overviewHow to use our weather pages